User: anonymous   Login
Location: Unspecified
(0.0000°N, 0.0000°E)
Time: 07:52:51
(UTC+00:00)
Language:

COSMOS 2400 - Orbit

View from above orbital plane
View from above orbital plane
View from above satellite
View from above satellite

Ground track
Ground track

The orbit data is extracted from the following two-line orbital elements,

1 27868U 03037A   17328.78006603  .00000006  00000-0 -28953-4 0  9993
2 27868  82.4672 130.0604 0022796  58.0272 302.3018 12.45132259648544
Epoch (UTC): 24 November 2017 18:43:17
Eccentricity: 0.0022796
inclination: 82.4672°
perigee height: 1467 km
apogee height: 1503 km
right ascension of ascending node: 130.0604°
argument of perigee: 58.0272°
revolutions per day: 12.45132259
mean anomaly at epoch: 302.3018°
orbit number at epoch: 64854

The dashed part of the orbit path shows where the satellite is in the earth's shadow,  

DLR